星链-4052 (STARLINK-4052 )

导读

STARLINK-4052是美国SpaceX公司星链(Starlink)星座中的一颗低轨通信卫星,于2022年7月17日发射升空。作为星链互联网星座的组成部分,它服务于全球宽带接入服务,采用平板设计与氪工质霍尔推进器,具备自主避撞能力,服役寿命约5-7年,退役后将主动离轨再入大气层焚毁。

基本信息
目录编号:
53171
目录名称:
STARLINK-4052
国际标识:
2022-083AR
轨道中心:
EARTH
卫星名称:
星链-4052
卫星全名:
星链-4052 (STARLINK-4052 )
卫星状态:
在轨 (已飞行1431 天)
发射日期:
2022-07-17 UTC
国别 :
美国 (US)
星等 :
--
轨道信息
数据来源 国际轨道数据 AOE轨道数据
星历时间 2026-06-17T07:41:09+0800
13小时前
查看轨道信息
2026-06-14T23:00:00+0800
2天前
查看轨道信息
半长轴 6917.9km 6917.891km
偏心率 0.0001439 0.0001785
轨道倾角 53.160° 53.162°
近地点辐角 92.294° 74.911°
升交点赤经 48.023° 58.638°
平近点角 267.822° 48.751°
近地点 538.767km 538.519km
远地点 540.759km 540.989km
周期 95.438分钟 95.438分钟
每日圈数 15.088339 15.088368
详细信息
固有亮度:
5
最大亮度:
2.5
卫星平台:
Starlink v1.5
覆盖范围:
全球
运营商:
太空探索技术公司
运营商所在国:
美国
制造商(研发单位):
太空探索技术公司
制造商所在国:
美国
使用方式:
暂无
卫星简介
星链(Starlink)计划是由太空探索技术公司(SpaceX)提出的一个巨型低轨卫星互联网星座项目,计划在2019年至2024年间在太空搭建由约1.2万颗卫星组成的“星链”网络,其中1584颗将部署在地球上空550千米处的近地轨道,并从2020年开始工作。该卫星仍在工作。
2D轨道图
3D轨道图
轨道高度分析图
轨道倾角分析图
轨道综合分析图
查看轨道综合分析图